SCP
0 0 0 0 0 0 0 0 0 0 0 0 0 0 0 0 0 0 0 0 0 0 0 0 0 0 0 0 0 0 0 0 0 0 0 0 0 0 0 0 0 0 0 0
0 0 0 0 0 0 0 0 0 0 0 0 0 0 0 0 0 0 0 0 0 0 0 0 0 0 0 0 0 0 0 0 0 0 0 0 0 0 0 0 0 0 0 0
0 0 0 0 0 0 0 0 0 0 0 0 0 0 0 0 0 0 0 0 0 0 0 0 0 0 0 0 0 0 0 0 0 0 0 0 0 0 0 0 0 0 0 0
0 0 0 0 0 0 0 0 0 0 0 0 0 0 0 0 0 0 0 0 0 0 0 0 0 0 0 0 0 0 0 0 0 0 0 0 0 0 0 0 0 0 0 0
0 0 0 0 0 0 0 0 0 0 0 0 0 0 0 0 0 0 0 0 0 0 0 0 0 0 0 0 0 0 0 0 0 0 0 0 0 0 0 0 0 0 0 0
0 0 0 0 0 0 0 0 0 0 0 0 0 0 0 0 0 0 0 0 0 0 0 0 0 0 0 0 0 0 0 0 0 0 0 0 0 0 0 0 0 0 0 0
0 0 0 0 0 0 0 0 0 0 0 0 0 0 0 0 0 0 0 0 0 0 0 0 0 0 0 0 0 0 0 0 0 0 0 0 0 0 0 0 0 0 0 0
0 0 0 0 0 0 0 0 0 0 0 0 0 0 0 0 0 0 0 0 0 0 0 0 0 0 0 0 0 0 0 0 0 0 0 0 0 0 0 0 0 0 0 0
0 0 0 0 0 0 0 0 0 0 0 0 0 0 0 0 0 0 0 0 0 0 0 0 0 0 0 0 0 0 0 0 0 0 0 0 0 0 0 0 0 0 0 0
0 0 0 0 0 0 0 0 0 0 0 0 0 0 0 0 0 0 0 0 0 0 0 0 0 0 0 0 0 0 0 0 0 0 0 0 0 0 0 0 0 0 0 0
0 0 0 0 0 0 0 0 0 0 0 0 0 0 0 0 0 0 0 0 0 0 0 0 0 0 0 0 0 0 0 0 0 0 0 0 0 0 0 0 0 0 0 0
0 0 0 0 0 0 0 0 0 0 0 0 0 0 0 0 0 0 0 0 0 0 0 0 0 0 0 0 0 0 0 0 0 0 0 0 0 0 0 0 0 0 0 0
0 0 0 0 0 0 0 0 0 0 0 0 0 0 0 0 0 0 0 0 0 0 0 0 0 0 0 0 0 0 0 0 0 0 0 0 0 0 0 0 0 0 0 0
0 0 0 0 0 0 0 0 0 0 0 0 0 0 0 0 0 0 0 0 0 0 0 0 0 0 0 0 0 0 0 0 0 0 0 0 0 0 0 0 0 0 0 0
0 0 0 0 0 0 0 0 0 0 0 0 0 0 0 0 0 0 0 0 0 0 0 0 0 0 0 0 0 0 0 0 0 0 0 0 0 0 0 0 0 0 0 0
0 0 0 0 0 0 0 0 0 0 0 0 0 0 0 0 0 0 0 0 0 0 0 0 0 0 0 0 0 0 0 0 0 0 0 0 0 0 0 0 0 0 0 0
0 0 0 0 0 0 0 0 0 0 0 0 0 0 0 0 0 0 0 0 0 0 0 0 0 0 0 0 0 0 0 0 0 0 0 0 0 0 0 0 0 0 0 0
0 0 0 0 0 0 0 0 0 0 0 0 0 0 0 0 0 0 0 0 0 0 0 0 0 0 0 0 0 0 0 0 0 0 0 0 0 0 0 0 0 0 0 0
0 0 0 0 0 0 0 0 0 0 0 0 0 0 0 0 0 0 0 0 0 0 0 0 0 0 0 0 0 0 0 0 0 0 0 0 0 0 0 0 0 0 0 0
0 0 0 0 0 0 0 0 0 0 0 0 0 0 0 0 0 0 0 0 0 0 0 0 0 0 0 0 0 0 0 0 0 0 0 0 0 0 0 0 0 0 0 0
0 0 0 0 0 0 0 0 0 0 0 0 0 0 0 0 0 0 0 0 0 0 0 0 0 0 0 0 0 0 0 0 0 0 0 0 0 0 0 0 0 0 0 0
0 0 0 0 0 0 0 0 0 0 0 0 0 0 0 0 0 0 0 0 0 0 0 0 0 0 0 0 0 0 0 0 0 0 0 0 0 0 0 0 0 0 0 0
0 0 0 0 0 0 0 0 0 0 0 0 0 0 0 0 0 0 0 0 0 0 0 0 0 0 0 0 0 0 0 0 0 0 0 0 0 0 0 0 0 0 0 0
0 0 0 0 0 0 0 0 0 0 0 0 0 0 0 0 0 0 0 0 0 0 0 0 0 0 0 0 0 0 0 0 0 0 0 0 0 0 0 0 0 0 0 0
0 0 0 0 0 0 0 0 0 0 0 0 0 0 0 0 0 0 0 0 0 0 0 0 0 0 0 0 0 0 0 0 0 0 0 0 0 0 0 0 0 0 0 0
0 0 0 0 0 0 0 0 0 0 0 0 0 0 0 0 0 0 0 0 0 0 0 0 0 0 0 0 0 0 0 0 0 0 0 0 0 0 0 0 0 0 0 0
0 0 0 0 0 0 0 0 0 0 0 0 0 0 0 0 0 0 0 0 0 0 0 0 0 0 0 0 0 0 0 0 0 0 0 0 0 0 0 0 0 0 0 0
Wind_Speed
10 9 6 8 11 10 14 14 15 18 21 27 23 12 9 10 10 10 10 10 10 12 11 11 12 13 14 14 14 14 14 14 14 11 9 8 8 7 7 6 7 6 7 8
7 9 10 10 16 18 18 16 19 23 26 26 19 9 8 10 10 11 11 11 11 11 11 13 15 15 15 15 15 14 15 14 11 10 9 9 9 8 7 7 6 6 7 8
7 5 5 10 15 18 11 11 11 18 21 17 13 11 10 10 9 10 11 11 11 12 13 14 15 16 17 16 14 15 15 13 12 11 11 10 10 8 8 7 6 7 7 8
4 1 12 13 5 8 10 13 14 16 18 15 11 9 9 9 10 12 11 11 10 10 10 11 11 12 12 12 14 15 15 14 13 12 12 10 9 9 8 6 6 6 7 8
3 6 13 10 9 7 8 11 11 16 19 15 6 6 9 8 8 11 10 10 9 8 8 8 9 11 11 13 14 15 16 15 14 14 12 11 11 11 8 6 7 7 7 7
4 6 12 10 5 1 1 10 7 5 9 6 2 3 7 6 5 6 8 7 7 6 5 7 8 10 13 15 16 19 18 16 15 14 14 13 12 10 8 7 7 7 7 6
8 10 14 10 3 3 5 9 4 2 3 1 5 8 9 9 9 9 9 10 8 7 7 8 7 11 14 16 20 17 13 13 14 14 14 13 10 9 8 7 6 6 6 6
7 8 15 7 6 9 9 4 5 6 5 5 8 11 11 11 11 11 11 11 9 8 10 8 8 12 15 19 16 11 13 14 15 15 13 11 10 9 8 7 6 6 5 5
13 13 7 5 9 7 4 7 9 8 9 8 9 11 12 11 11 11 11 11 9 9 11 8 10 14 18 17 11 13 14 15 13 13 12 11 11 10 8 7 6 5 5 5
9 12 11 9 9 10 11 11 11 11 12 10 11 13 13 12 11 10 11 10 9 8 10 12 11 15 18 11 11 14 15 14 13 13 13 12 10 9 8 8 7 6 6 5
13 11 10 10 9 9 9 10 12 13 12 10 11 12 12 11 11 10 10 9 8 9 11 14 10 13 14 10 13 15 14 14 13 13 12 12 11 10 10 8 8 7 6 5
21 13 13 13 11 13 14 13 12 12 11 10 9 10 10 10 10 9 10 9 9 10 12 13 10 11 11 12 14 15 13 13 11 10 10 10 10 8 14 12 15 16 13 10
22 18 17 15 11 9 9 10 10 9 9 9 8 8 8 9 8 9 10 11 11 12 12 12 10 11 9 12 14 16 15 13 11 11 11 11 10 10 8 10 14 15 15 14
13 12 13 12 11 9 9 8 7 6 6 6 7 7 8 8 9 11 12 12 12 12 13 12 11 11 8 11 14 15 14 16 14 11 12 11 11 10 9 9 8 5 8 11
12 11 10 7 5 5 5 5 5 7 8 8 7 8 9 10 12 13 13 12 11 11 12 11 11 11 7 11 14 15 13 10 11 10 10 10 10 9 9 9 8 5 4 5
6 4 2 2 3 4 5 6 6 8 8 9 9 10 11 11 12 13 13 11 10 13 14 12 13 11 7 10 13 12 12 19 15 10 10 10 10 10 9 9 8 7 7 6
3 1 2 2 3 4 5 5 7 8 9 10 11 12 12 12 12 13 13 12 11 12 13 12 13 10 7 10 12 10 10 14 22 13 10 11 11 11 10 9 9 8 7 8
4 3 2 1 3 6 7 8 8 10 10 12 12 11 12 13 14 15 15 14 13 14 13 11 10 9 7 8 10 9 9 10 11 10 11 11 11 10 10 10 10 9 6 7
2 1 2 4 6 7 8 9 10 10 11 11 11 12 13 13 13 14 13 12 13 15 12 10 14 10 7 9 11 8 10 11 10 10 10 14 13 10 10 10 9 9 8 7
2 4 5 6 7 7 9 10 10 11 11 10 11 12 13 13 13 13 12 12 11 11 10 12 11 8 7 8 13 8 11 12 12 11 11 11 11 11 10 10 10 9 8 8
5 6 7 8 9 10 10 10 11 13 12 11 12 13 14 15 13 12 11 13 12 10 10 14 9 7 6 7 12 8 11 11 12 12 12 12 11 11 11 11 10 10 9 8
6 7 9 10 11 13 11 10 11 12 13 13 13 13 14 14 13 12 11 11 12 15 11 8 7 10 10 10 7 9 11 12 11 11 11 11 11 11 11 11 10 10 9 8
7 8 10 11 12 13 14 12 11 11 12 13 14 14 14 13 11 11 13 9 8 15 12 8 12 17 17 8 6 9 11 12 12 11 11 11 11 10 10 12 10 10 9 9
9 10 11 11 11 11 13 14 12 11 12 12 12 13 13 12 11 9 10 15 18 19 11 12 19 19 16 5 6 8 10 11 11 11 11 10 9 9 9 10 9 9 9 10
10 11 11 11 11 10 11 12 12 12 12 10 11 12 10 9 11 12 11 12 17 18 11 13 18 17 9 4 7 9 10 10 10 10 11 10 10 10 9 9 9 9 9 9
10 10 10 10 10 10 9 9 10 10 10 12 11 9 9 9 10 11 10 11 13 16 11 8 8 9 6 5 7 9 10 11 13 12 11 10 10 10 9 9 11 9 9 9
9 9 8 9 8 8 8 9 10 11 11 12 13 12 11 10 10 10 11 10 9 8 7 7 6 6 5 4 6 8 9 10 10 10 10 10 9 9 9 10 9 8 9 9
Wind_Direction
254 262 244 239 246 226 216 223 236 253 255 266 270 273 259 260 267 267 259 246 233 228 224 215 209 207 204 201 195 191 191 196 202 199 194 195 201 207 214 224 240 248 259 266
270 258 245 251 253 246 240 235 242 259 267 265 276 281 270 267 266 266 261 252 242 234 226 219 214 210 205 202 196 191 194 200 197 188 190 197 203 208 216 228 240 251 258 266
265 280 314 261 236 235 225 217 215 244 256 271 279 272 263 262 258 254 257 257 250 239 230 225 217 208 206 202 191 192 197 196 191 189 194 200 204 209 219 227 238 251 259 264
258 287 241 244 235 223 232 245 229 246 262 269 267 277 265 252 253 261 261 261 259 250 240 230 217 207 202 191 191 195 198 195 191 189 195 195 201 214 221 223 234 248 258 264
207 245 269 286 270 216 216 269 240 242 262 276 301 308 293 265 237 244 256 261 263 258 247 232 212 198 189 193 195 199 201 197 192 188 190 193 205 216 218 219 233 243 253 260
198 226 251 252 257 170 122 286 277 237 263 294 56 330 285 305 315 285 281 277 277 277 256 236 212 183 190 199 200 207 204 198 190 188 190 197 206 210 211 216 231 242 252 254
218 236 261 259 256 138 213 253 310 330 294 277 216 235 262 297 299 290 288 285 281 270 253 240 201 185 201 206 213 210 197 189 187 189 193 196 199 202 207 215 227 237 251 258
195 220 255 238 158 197 231 299 309 308 301 287 267 271 280 285 284 286 288 286 279 265 259 242 196 195 211 219 216 193 185 188 189 188 188 190 193 199 204 211 223 236 246 258
202 222 248 194 215 248 287 288 290 292 294 293 284 282 284 282 282 284 281 280 274 261 264 251 210 205 221 225 198 183 187 192 190 187 188 185 188 195 198 204 215 228 235 249
249 256 264 266 256 260 259 261 274 282 286 286 278 280 284 285 286 285 283 281 279 271 264 261 230 218 228 219 185 187 192 192 188 187 187 188 189 193 197 200 208 218 226 237
262 270 282 263 259 271 283 287 288 286 286 285 282 283 283 287 287 285 284 283 279 267 264 265 250 230 226 205 186 192 195 192 190 190 187 189 194 198 199 203 200 205 213 217
266 269 270 280 284 287 288 288 290 294 297 298 293 285 287 287 288 290 292 290 288 279 272 272 261 243 224 202 193 194 195 194 190 187 186 187 189 199 215 211 222 228 222 213
261 269 270 280 283 284 285 289 293 293 294 300 301 298 299 297 297 300 298 297 294 289 283 279 270 254 226 200 197 199 198 191 187 185 185 187 187 187 193 214 224 228 230 231
259 269 277 282 287 295 298 301 305 311 313 309 306 311 312 304 303 304 300 297 297 296 293 288 278 266 231 201 200 203 201 196 189 186 185 185 187 186 184 185 193 211 224 227
261 261 269 283 303 321 326 333 337 332 326 322 316 312 308 304 300 297 296 297 298 296 294 291 283 275 236 204 202 202 199 197 191 184 183 183 182 180 180 184 187 183 177 214
279 299 322 354 0 355 353 351 337 321 313 306 303 300 297 292 290 291 293 295 297 298 298 295 286 277 242 209 204 202 200 200 190 183 181 180 179 179 179 181 184 185 190 190
246 308 20 14 351 332 320 306 295 292 293 294 292 293 295 296 297 298 300 300 293 289 289 286 283 278 247 213 202 200 194 199 197 187 184 183 182 183 180 179 184 188 191 189
110 124 131 255 287 293 294 290 286 287 287 287 290 292 295 296 297 298 299 301 302 299 295 286 279 278 254 219 203 196 189 190 190 182 183 185 185 182 178 179 183 183 179 193
126 185 249 263 266 269 276 284 286 286 287 290 292 293 292 291 289 290 295 298 299 299 297 298 304 295 260 229 207 194 188 188 189 183 182 190 188 181 179 179 181 180 177 179
266 267 272 277 279 279 285 289 290 293 294 293 293 295 296 294 293 294 296 292 284 278 282 294 298 286 264 238 215 194 190 189 189 185 183 187 185 182 181 180 178 176 177 179
288 291 297 300 301 299 295 295 297 297 297 295 293 294 295 295 294 293 295 297 291 285 289 296 294 282 264 242 219 195 192 191 190 186 185 187 187 183 180 179 179 178 178 178
297 301 303 304 304 304 302 298 294 293 295 296 294 293 295 297 297 292 279 277 284 292 296 289 285 282 278 255 214 196 193 192 191 187 185 186 186 184 181 179 180 179 175 172
293 294 297 298 297 297 298 296 291 289 291 293 294 294 292 291 292 292 294 287 284 293 296 284 289 292 287 258 211 198 194 192 190 188 187 186 186 185 181 180 180 175 169 168
291 293 291 290 291 293 295 295 292 288 286 286 283 281 283 289 288 277 275 287 293 296 292 288 294 296 290 245 204 195 192 191 189 187 185 184 182 181 180 179 177 171 167 165
280 284 287 291 293 291 290 292 295 294 291 289 286 282 278 274 278 286 286 285 288 295 292 292 296 297 288 236 201 190 186 187 186 184 185 182 180 180 179 178 176 170 167 166
274 279 281 278 278 282 285 288 291 294 297 298 296 291 286 283 279 281 283 283 282 288 290 287 286 286 271 234 200 187 182 185 189 187 182 179 177 177 178 177 174 171 167 163
273 275 279 282 279 272 274 281 287 291 292 294 296 297 294 292 289 287 285 285 285 285 284 283 279 271 257 226 195 182 178 177 179 177 175 175 173 175 177 174 173 168 163 160